Back to catalog

OPS 4682 DEB

AlivePO
NORAD 20131·DEBRIS·🇺🇸 United States

Launched Apr 3, 1965 from Vandenberg Space Force Base

Loading…

Next Passes (next 24 hours)

TLE

FreshSource: Space-Track

Epoch: Sep 11, 2026, 06:55 UTC

1 20131U 65027BD  26254.28850381  .00000120  00000-0  36915-3 0  9991
2 20131  90.2450   6.5056 0034531  89.6677 299.0698 13.00401747776167

Track OPS 4682 DEB in real time with AllMySat

Download on the App Store